Regional Weather Roundup
Issued by NWS

Home | Current Version | Previous Version | Text Only | Print | Product List | Glossary On
Versions: 1 2 3 4 5 6 7 8 9 10 11 12 13 14 15 16 17 18 19 20 21 22 23 24 25 26 27 28 29 30 31 32 33 34 35 36 37 38 39 40 41 42 43 44 45 46 47 48 49 50
000
ASUS46 KSEW 270310
RWRWA

WASHINGTON REGIONAL WEATHER ROUNDUP
NATIONAL WEATHER SERVICE SEATTLE WA
700 PM PST SUN FEB 26 2017

NOTE:"FAIR" INDICATES FEW OR NO CLOUDS BELOW 12,000 FEET WITH NO
SIGNIFICANT WEATHER AND/OR OBSTRUCTIONS TO VISIBILITY.

WAZ507-509-555>559-270400-
SEATTLE, TACOMA, EVERETT, AND VICINITY

CITY           SKY/WX    TMP DP  RH WIND       PRES   REMARKS
EVERETT        CLOUDY    38  34  85 SW5       29.72R
BOEING FIELD   CLOUDY    41  36  82 CALM      29.74R
RENTON         CLOUDY    41  40  96 NW9       29.74R
SEATAC AIRPORT MOCLDY    39  35  86 N9        29.73R
JBLM-MCCHORD   LGT RAIN  38  38  99 CALM      29.74R
PUYALLUP       DRIZZLE   37  37 100 CALM      29.73R
BREMERTON      MOCLDY    37  32  81 NE7       29.76R
JBLM-FT LEWIS  LGT RAIN  37  37 100 CALM      29.74R
TACOMA NARROWS CLOUDY    38  36  92 N7        29.74R
$$

WAZ001-503-506-510-514-515-270400-
NORTH INTERIOR

CITY           SKY/WX    TMP DP  RH WIND       PRES   REMARKS
BELLINGHAM     FAIR      39  19  44 N13       29.73S
FRIDAY HARBOR  MOCLDY    40  29  64 CALM      29.76R
EASTSOUND      FAIR      41  23  48 N7        29.75R
PORT ANGELES   CLOUDY    36  36 100 SW3       29.76S
EDIZ HOOK      CLOUDY    40  34  81 S6        29.77S
PORT TOWNSEND  CLOUDY    39  36  87 W7        29.76R
NAS WHIDBEY    MOCLDY    42  18  37 N14G22    29.77R
ARLINGTON      CLOUDY    39  30  70 SE5       29.74R
BURLINGTON     PTCLDY    37  27  65 NW7       29.72S
$$

WAZ020-022-039-040-504-511-512-270400-
SOUTHWEST INTERIOR

CITY           SKY/WX    TMP DP  RH WIND       PRES   REMARKS
SHELTON        FOG       36  35  96 CALM      29.72R VSB 1/4
OLYMPIA        LGT RAIN  38  38 100 NE5       29.75R
CHEHALIS       CLOUDY    39  39 100 CALM      29.74R
KELSO          MIX PCPN  37  35  92 S6        29.76R
VANCOUVER      CLOUDY    39  37  92 SE6       29.75R
SCAPPOOSE, OR  CLOUDY    38  37  97 E3        29.74S
PORTLAND, OR   MOCLDY    38  35  89 SE7       29.75R
$$

WAZ021-516-517-270400-
WASHINGTON COAST

CITY           SKY/WX    TMP DP  RH WIND       PRES   REMARKS
FORKS          FAIR      36  31  82 N8        29.75R
HOQUIAM        FAIR      39  36  89 NE5       29.74R
ASTORIA, OR    FAIR      39  33  79 CALM      29.73R
$$

WAZ019-023-024-040-567>569-270400-
CASCADE MOUNTAINS AND COLUMBIA GORGE

CITY           SKY/WX    TMP DP  RH WIND       PRES   REMARKS
STAMPEDE PASS  NOT AVBL
TROUTDALE, OR  CLOUDY    38  36  92 NE3       29.76R
THE DALLES, OR FAIR      39  32  76 W6        29.72R
$$

WAZ026-027-041>044-520-521-270400-
EAST SLOPES

CITY           SKY/WX    TMP DP  RH WIND       PRES   REMARKS
OMAK           CLOUDY    33  18  53 N12       29.72R WCI  24
WENATCHEE      CLOUDY    31  30  96 NW3       29.72R
ELLENSBURG     MOCLDY    29  25  85 N5        29.67R
YAKIMA         LGT SNOW  34  33  96 W3        29.71R FOG
SUNNYSIDE ARPT LGT RAIN  32  32  99 CALM      29.71R
$$

WAZ028-034-035-270400-
COLUMBIA BASIN

CITY           SKY/WX    TMP DP  RH WIND       PRES   REMARKS
EPHRATA        MOCLDY    32  24  72 N9        29.70R
MOSES LAKE     FAIR      31  28  89 N9        29.70R
PASCO          CLOUDY    38  34  85 N6        29.72R
HERMISTON, OR  LGT RAIN  37  35  92 NE7       29.69R
$$

WAZ036>038-270400-
NORTHEAST WASHINGTON

CITY           SKY/WX    TMP DP  RH WIND       PRES   REMARKS
SPOKANE GEIGER LGT SNOW  30  27  88 NE3       29.64S FOG
SPOKANE FELTS  FLURRIES  31  30  96 CALM      29.67R
FAIRCHILD AFB  CLOUDY    28  28 100 N5        29.63S
COEURDALENE,ID FLURRIES  28  27  96 N3        29.65S
DEER PARK      MOCLDY    27  24  89 W3        29.66R
$$

WAZ029>033-270400-
SOUTHEAST WASHINGTON

CITY           SKY/WX    TMP DP  RH WIND       PRES   REMARKS
PULLMAN        CLOUDY    28  25  88 CALM      29.65S
LEWISTON, ID   LGT SNOW  32  31  96 S3        29.68S FOG
WALLA WALLA    MOCLDY    35  33  92 E5        29.67S
PENDLETON, OR  MIX PCPN  35  33  92 NE10      29.65R WCI  27
$$



USA.gov is the U.S. government's official web portal to all federal, state and local government web resources and services.